Starlink 31980

operational
NORAD ID: 59962 Int'l Des: 2024-107 Owner: SPXS Country: US Constellation: starlink
LEOCIRCULAR

Starlink 31980について

説明を読み込み中...

リアルタイム位置

3D地球を読み込み中...

次回通過

高度履歴

Altitude vs Time

uPlot chart will show altitude changes over time

軌道要素

1 59962U 24107T 25353.53903392 -.00000133 00000-0 76336-5 0 9995
2 59962 53.1598 77.9190 0000910 73.0324 287.0777 15.30188152 87520
Epoch: Dec 19, 2025 • Age: 23 hours

現在のステータス

高度 491.9 km
速度 7.62 km/s
衛星直下点 -47.02°S, 37.94°E
打ち上げ日 Jun 5, 2024
運用期間 1.5 years
タイプ internet

技術仕様

分類 Payload
質量 730.00 kg
乾燥質量 700.00 kg
総質量 730.00 kg
長さ 0.30 m
直径 4.10 m
スパン 29.00 m
形状 Box + pan
製造者 SPXS
バスタイプ Starlink V2M
フェーズステータス In Orbit
所有者/国 SPXS/US

大規模コンステレーション

Loading constellations...